SWA1317 KPWM-KBWI

Flight info

Callsign SWA1317
Flight time 1h 15m
Altitude 36000
Route NUBLE4 CCC TOPRR Q167 ZIZZI KNUKK ATR LAFLN MIIDY3
Aircraft B738/M-SDE2E3FGHIRWXY/LB1

Departure

Time 2026-04-27 14:41
Airport Portland International Jetport (KPWM)

Arrival

Time 2026-04-27 15:56
Airport Baltimore/Washington International Thurgood Marshall Airport (KBWI)
Time Latitude Longitude Altitude Speed Heading
2026-04-27 14:14 43.64730 -70.31290 59 ft 0 kts 64°
2026-04-27 14:33 43.64725 -70.31305 75 ft 4 kts 55°
2026-04-27 14:34 43.64706 -70.31329 71 ft 4 kts 17°
2026-04-27 14:34 43.64681 -70.31330 72 ft 4 kts 340°
2026-04-27 14:34 43.64658 -70.31313 71 ft 4 kts 321°
2026-04-27 14:34 43.64652 -70.31306 69 ft 0 kts 319°
2026-04-27 14:37 43.64654 -70.31309 70 ft 2 kts 319°
2026-04-27 14:37 43.64661 -70.31337 72 ft 5 kts 261°
2026-04-27 14:37 43.64636 -70.31390 71 ft 9 kts 242°
2026-04-27 14:37 43.64623 -70.31485 79 ft 12 kts 270°
2026-04-27 14:38 43.64630 -70.31612 80 ft 16 kts 275°
2026-04-27 14:38 43.64640 -70.31766 82 ft 16 kts 275°
2026-04-27 14:38 43.64650 -70.31914 77 ft 15 kts 276°
2026-04-27 14:38 43.64659 -70.32057 85 ft 15 kts 274°
2026-04-27 14:39 43.64669 -70.32193 88 ft 14 kts 277°
2026-04-27 14:39 43.64679 -70.32324 91 ft 13 kts 275°
2026-04-27 14:39 43.64686 -70.32449 92 ft 13 kts 275°
2026-04-27 14:39 43.64684 -70.32568 94 ft 13 kts 233°
2026-04-27 14:40 43.64603 -70.32580 91 ft 12 kts 150°
2026-04-27 14:40 43.64578 -70.32472 91 ft 12 kts 95°
2026-04-27 14:40 43.64563 -70.32226 89 ft 54 kts 95°
2026-04-27 14:40 43.64507 -70.31418 78 ft 116 kts 95°
2026-04-27 14:41 43.64412 -70.30062 172 ft 159 kts 96°
2026-04-27 14:41 43.64269 -70.28481 684 ft 175 kts 97°
2026-04-27 14:41 43.64203 -70.26746 1188 ft 182 kts 78°
2026-04-27 14:41 43.64814 -70.25306 1686 ft 174 kts 52°
2026-04-27 14:42 43.65544 -70.23966 2156 ft 173 kts 53°
2026-04-27 14:42 43.66270 -70.22567 2688 ft 187 kts 58°
2026-04-27 14:42 43.66664 -70.20830 3161 ft 191 kts 79°
2026-04-27 14:42 43.66874 -70.19009 3653 ft 199 kts 88°
2026-04-27 14:43 43.66571 -70.17112 4173 ft 207 kts 106°
2026-04-27 14:43 43.66140 -70.15149 4669 ft 219 kts 105°
2026-04-27 14:43 43.65705 -70.13124 5115 ft 220 kts 105°
2026-04-27 14:43 43.64982 -70.11289 5554 ft 230 kts 137°
2026-04-27 14:44 43.63493 -70.10337 6095 ft 249 kts 173°
2026-04-27 14:44 43.61727 -70.10461 6649 ft 259 kts 185°
2026-04-27 14:44 43.59892 -70.10755 7142 ft 274 kts 185°
2026-04-27 14:44 43.57961 -70.11214 7617 ft 288 kts 199°
2026-04-27 14:45 43.56310 -70.12762 8092 ft 289 kts 226°
2026-04-27 14:45 43.54972 -70.14844 8593 ft 291 kts 229°
2026-04-27 14:45 43.53654 -70.16985 9120 ft 294 kts 230°
2026-04-27 14:45 43.52320 -70.19157 9930 ft 298 kts 230°
2026-04-27 14:46 43.50954 -70.21367 10533 ft 313 kts 230°
2026-04-27 14:46 43.49478 -70.23739 10727 ft 339 kts 229°
2026-04-27 14:46 43.47904 -70.26253 11215 ft 352 kts 229°
2026-04-27 14:46 43.46308 -70.28795 11946 ft 357 kts 229°
2026-04-27 14:47 43.44673 -70.31391 12748 ft 361 kts 229°
2026-04-27 14:47 43.43017 -70.34016 13538 ft 365 kts 229°
2026-04-27 14:47 43.41341 -70.36669 14294 ft 369 kts 229°
2026-04-27 14:47 43.39642 -70.39352 14995 ft 373 kts 229°
2026-04-27 14:48 43.37924 -70.42060 15716 ft 376 kts 230°
2026-04-27 14:48 43.34475 -70.47496 17111 ft 383 kts 230°
2026-04-27 14:48 43.32710 -70.50273 17802 ft 387 kts 230°
2026-04-27 14:49 43.30933 -70.53070 18495 ft 391 kts 230°
2026-04-27 14:49 43.29135 -70.55896 19052 ft 395 kts 230°
2026-04-27 14:49 43.27309 -70.58758 19640 ft 399 kts 230°
2026-04-27 14:49 43.25345 -70.61470 20245 ft 403 kts 223°
2026-04-27 14:50 43.23198 -70.63964 20844 ft 407 kts 221°
2026-04-27 14:50 43.21007 -70.66457 21412 ft 410 kts 221°
2026-04-27 14:50 43.18814 -70.69020 21981 ft 413 kts 222°
2026-04-27 14:50 43.17372 -70.70733 22350 ft 416 kts 222°
2026-04-27 14:51 43.15026 -70.73084 22881 ft 421 kts 211°
2026-04-27 14:51 43.11572 -70.75576 23622 ft 426 kts 208°
2026-04-27 14:51 43.08906 -70.77382 24096 ft 430 kts 207°
2026-04-27 14:51 43.07091 -70.78613 24400 ft 432 kts 208°
2026-04-27 14:52 43.04401 -70.80465 24873 ft 433 kts 208°
2026-04-27 14:52 43.01710 -70.82353 25343 ft 435 kts 209°
2026-04-27 14:52 42.99053 -70.84240 25775 ft 437 kts 209°
2026-04-27 14:52 42.96349 -70.86173 26199 ft 440 kts 209°
2026-04-27 14:53 42.93627 -70.88120 26611 ft 443 kts 209°
2026-04-27 14:53 42.90882 -70.90082 27047 ft 445 kts 209°
2026-04-27 14:53 42.88134 -70.92042 27495 ft 447 kts 209°
2026-04-27 14:53 42.85367 -70.94012 27905 ft 449 kts 209°
2026-04-27 14:54 42.82568 -70.95962 28297 ft 452 kts 206°
2026-04-27 14:54 42.79647 -70.97597 28671 ft 456 kts 201°
2026-04-27 14:54 42.76639 -70.99029 29057 ft 458 kts 200°
2026-04-27 14:54 42.73643 -71.00383 29428 ft 460 kts 200°
2026-04-27 14:55 42.70603 -71.01764 29797 ft 462 kts 200°
2026-04-27 14:55 42.67542 -71.03190 30153 ft 464 kts 201°
2026-04-27 14:55 42.64484 -71.04647 30482 ft 466 kts 201°
2026-04-27 14:55 42.61413 -71.06131 30750 ft 468 kts 201°
2026-04-27 14:56 42.58341 -71.07624 31023 ft 470 kts 201°
2026-04-27 14:56 42.55261 -71.09121 31311 ft 471 kts 201°
2026-04-27 14:56 42.52169 -71.10621 31690 ft 470 kts 201°
2026-04-27 14:56 42.49095 -71.12109 32126 ft 468 kts 201°
2026-04-27 14:57 42.46073 -71.13568 32529 ft 466 kts 201°
2026-04-27 14:57 42.43023 -71.15044 32866 ft 466 kts 202°
2026-04-27 14:57 42.40130 -71.16991 33113 ft 463 kts 217°
2026-04-27 14:57 42.37550 -71.19588 33513 ft 461 kts 219°
2026-04-27 14:58 42.35006 -71.22199 33902 ft 459 kts 219°
2026-04-27 14:58 42.32453 -71.24809 34210 ft 459 kts 219°
2026-04-27 14:58 42.29885 -71.27407 34480 ft 460 kts 219°
2026-04-27 14:58 42.27318 -71.29978 34750 ft 459 kts 218°
2026-04-27 14:59 42.24746 -71.32536 34994 ft 460 kts 218°
2026-04-27 14:59 42.22156 -71.35098 35229 ft 460 kts 218°
2026-04-27 14:59 42.19572 -71.37648 35503 ft 460 kts 218°
2026-04-27 14:59 42.16987 -71.40195 35773 ft 459 kts 218°
2026-04-27 15:00 42.14441 -71.42700 35999 ft 459 kts 218°
2026-04-27 15:00 42.11858 -71.45241 36225 ft 459 kts 218°
2026-04-27 15:00 42.06663 -71.50346 36313 ft 465 kts 218°
2026-04-27 15:01 42.01441 -71.55465 36307 ft 462 kts 218°
2026-04-27 15:01 41.96268 -71.60525 36309 ft 459 kts 218°
2026-04-27 15:02 41.91087 -71.65586 36310 ft 460 kts 219°
2026-04-27 15:02 41.85901 -71.70642 36310 ft 461 kts 219°
2026-04-27 15:03 41.80705 -71.75696 36306 ft 462 kts 218°
2026-04-27 15:03 41.75535 -71.80714 36294 ft 462 kts 218°
2026-04-27 15:04 41.70317 -71.85768 36291 ft 463 kts 218°
2026-04-27 15:04 41.65098 -71.90814 36289 ft 463 kts 218°
2026-04-27 15:05 41.59867 -71.95863 36288 ft 463 kts 219°
2026-04-27 15:05 41.54666 -72.00959 36282 ft 462 kts 223°
2026-04-27 15:06 41.49984 -72.06801 36287 ft 459 kts 229°
2026-04-27 15:06 41.45493 -72.12867 36276 ft 460 kts 229°
2026-04-27 15:07 41.40949 -72.18867 36286 ft 460 kts 227°
2026-04-27 15:07 41.36369 -72.24780 36289 ft 460 kts 227°
2026-04-27 15:08 41.31758 -72.30688 36292 ft 460 kts 228°
2026-04-27 15:08 41.27139 -72.36589 36296 ft 460 kts 228°
2026-04-27 15:09 41.22536 -72.42463 36286 ft 461 kts 228°
2026-04-27 15:09 41.17903 -72.48366 36291 ft 461 kts 228°
2026-04-27 15:10 41.13290 -72.54233 36287 ft 461 kts 228°
2026-04-27 15:10 41.08655 -72.60115 36297 ft 461 kts 228°
2026-04-27 15:11 41.04008 -72.66002 36291 ft 461 kts 229°
2026-04-27 15:11 40.99361 -72.71877 36302 ft 462 kts 229°
2026-04-27 15:12 40.94734 -72.77714 36300 ft 463 kts 229°
2026-04-27 15:12 40.92299 -72.80528 36272 ft 470 kts 217°
2026-04-27 15:12 40.89428 -72.82651 36320 ft 473 kts 212°
2026-04-27 15:13 40.83534 -72.86591 36300 ft 475 kts 211°
2026-04-27 15:13 40.77629 -72.90556 36284 ft 476 kts 212°
2026-04-27 15:14 40.71745 -72.94580 36286 ft 476 kts 212°
2026-04-27 15:14 40.65907 -72.98601 36278 ft 476 kts 212°
2026-04-27 15:15 40.60030 -73.02644 36281 ft 476 kts 212°
2026-04-27 15:15 40.54159 -73.06671 36288 ft 476 kts 212°
2026-04-27 15:16 40.48286 -73.10689 36284 ft 475 kts 212°
2026-04-27 15:16 40.42418 -73.14696 36293 ft 475 kts 212°
2026-04-27 15:17 40.36557 -73.18690 36295 ft 475 kts 212°
2026-04-27 15:17 40.30693 -73.22679 36283 ft 474 kts 212°
2026-04-27 15:18 40.24875 -73.26628 36295 ft 473 kts 212°
2026-04-27 15:18 40.19041 -73.30581 36284 ft 472 kts 213°
2026-04-27 15:19 40.13197 -73.34533 36284 ft 471 kts 213°
2026-04-27 15:19 40.07373 -73.38464 36306 ft 471 kts 213°
2026-04-27 15:20 40.01584 -73.42365 36313 ft 470 kts 213°
2026-04-27 15:20 39.95769 -73.46275 36315 ft 470 kts 213°
2026-04-27 15:21 39.89938 -73.50190 36304 ft 470 kts 213°
2026-04-27 15:21 39.84192 -73.54247 36302 ft 465 kts 220°
2026-04-27 15:22 39.79289 -73.59521 36313 ft 459 kts 227°
2026-04-27 15:22 39.74482 -73.64983 36311 ft 459 kts 227°
2026-04-27 15:23 39.69630 -73.70414 36303 ft 460 kts 227°
2026-04-27 15:23 39.64751 -73.75813 36311 ft 461 kts 226°
2026-04-27 15:24 39.59853 -73.81212 36317 ft 462 kts 226°
2026-04-27 15:24 39.54975 -73.86582 36314 ft 463 kts 226°
2026-04-27 15:25 39.50057 -73.91987 36311 ft 464 kts 226°
2026-04-27 15:25 39.45132 -73.97392 36315 ft 465 kts 226°
2026-04-27 15:26 39.40193 -74.02800 36253 ft 466 kts 227°
2026-04-27 15:26 39.37711 -74.05518 35971 ft 467 kts 227°
2026-04-27 15:26 39.35244 -74.08215 35720 ft 462 kts 227°
2026-04-27 15:27 39.32802 -74.10880 35372 ft 456 kts 227°
2026-04-27 15:27 39.30393 -74.13509 34984 ft 452 kts 227°
2026-04-27 15:27 39.28001 -74.16120 34571 ft 449 kts 227°
2026-04-27 15:27 39.25647 -74.18688 34153 ft 446 kts 227°
2026-04-27 15:28 39.23282 -74.21277 33698 ft 446 kts 228°
2026-04-27 15:28 39.20914 -74.23871 33261 ft 445 kts 227°
2026-04-27 15:28 39.18556 -74.26440 32838 ft 444 kts 227°
2026-04-27 15:28 39.16197 -74.29016 32416 ft 445 kts 227°
2026-04-27 15:29 39.13832 -74.31591 32014 ft 445 kts 227°
2026-04-27 15:29 39.11466 -74.34161 31607 ft 445 kts 227°
2026-04-27 15:29 39.09088 -74.36737 31171 ft 446 kts 226°
2026-04-27 15:29 39.06714 -74.39304 30772 ft 446 kts 226°
2026-04-27 15:30 39.04329 -74.41880 30368 ft 446 kts 226°
2026-04-27 15:30 39.01949 -74.44449 29895 ft 447 kts 226°
2026-04-27 15:30 38.99572 -74.47012 29448 ft 444 kts 226°
2026-04-27 15:30 38.97232 -74.49534 29001 ft 432 kts 228°
2026-04-27 15:31 38.95248 -74.52299 28606 ft 411 kts 241°
2026-04-27 15:31 38.93833 -74.55388 28205 ft 393 kts 251°
2026-04-27 15:31 38.92892 -74.58608 27790 ft 377 kts 262°
2026-04-27 15:31 38.92285 -74.61841 27417 ft 368 kts 263°
2026-04-27 15:32 38.91690 -74.65012 27019 ft 362 kts 262°
2026-04-27 15:32 38.91097 -74.68097 26647 ft 356 kts 262°
2026-04-27 15:32 38.90496 -74.71159 26276 ft 351 kts 262°
2026-04-27 15:32 38.89899 -74.74177 25919 ft 347 kts 262°
2026-04-27 15:33 38.89313 -74.77159 25552 ft 342 kts 262°
2026-04-27 15:33 38.88753 -74.80111 25201 ft 339 kts 263°
2026-04-27 15:33 38.88199 -74.83084 24864 ft 347 kts 263°
2026-04-27 15:33 38.87633 -74.86145 24491 ft 357 kts 262°
2026-04-27 15:34 38.87054 -74.89240 24105 ft 354 kts 262°
2026-04-27 15:34 38.86476 -74.92298 23698 ft 350 kts 262°
2026-04-27 15:34 38.85913 -74.95273 23280 ft 345 kts 262°
2026-04-27 15:34 38.85350 -74.98244 22889 ft 340 kts 262°
2026-04-27 15:35 38.84794 -75.01172 22529 ft 335 kts 262°
2026-04-27 15:35 38.84246 -75.04060 22169 ft 330 kts 262°
2026-04-27 15:35 38.83705 -75.06909 21797 ft 326 kts 262°
2026-04-27 15:35 38.83173 -75.09727 21493 ft 325 kts 262°
2026-04-27 15:36 38.82641 -75.12561 21153 ft 328 kts 262°
2026-04-27 15:36 38.82101 -75.15411 20811 ft 331 kts 262°
2026-04-27 15:36 38.81548 -75.18276 20457 ft 333 kts 262°
2026-04-27 15:36 38.81005 -75.21200 20122 ft 339 kts 264°
2026-04-27 15:37 38.80782 -75.23168 19865 ft 335 kts 269°
2026-04-27 15:37 38.80543 -75.27072 19392 ft 327 kts 271°
2026-04-27 15:37 38.80393 -75.29968 19041 ft 323 kts 271°
2026-04-27 15:37 38.80240 -75.32821 18701 ft 319 kts 271°
2026-04-27 15:38 38.80078 -75.35639 18320 ft 315 kts 271°
2026-04-27 15:38 38.79968 -75.37487 18074 ft 312 kts 271°
2026-04-27 15:38 38.79799 -75.40245 17722 ft 308 kts 271°
2026-04-27 15:38 38.79629 -75.42977 17372 ft 306 kts 270°
2026-04-27 15:39 38.79457 -75.45696 17048 ft 305 kts 270°
2026-04-27 15:39 38.79284 -75.48431 16734 ft 312 kts 270°
2026-04-27 15:39 38.79106 -75.51281 16145 ft 326 kts 270°
2026-04-27 15:39 38.78920 -75.54164 15730 ft 323 kts 270°
2026-04-27 15:40 38.78733 -75.57025 15366 ft 319 kts 270°
2026-04-27 15:40 38.78550 -75.59834 15011 ft 315 kts 270°
2026-04-27 15:40 38.78369 -75.62609 14676 ft 310 kts 270°
2026-04-27 15:40 38.78189 -75.65352 14355 ft 308 kts 270°
2026-04-27 15:41 38.78006 -75.68083 14021 ft 307 kts 270°
2026-04-27 15:41 38.77827 -75.70772 13662 ft 306 kts 270°
2026-04-27 15:41 38.77648 -75.73490 13320 ft 305 kts 270°
2026-04-27 15:41 38.77469 -75.76192 12991 ft 304 kts 270°
2026-04-27 15:42 38.77292 -75.78883 12651 ft 303 kts 270°
2026-04-27 15:42 38.77115 -75.81567 12332 ft 301 kts 270°
2026-04-27 15:42 38.76939 -75.84235 12019 ft 300 kts 270°
2026-04-27 15:42 38.76763 -75.86898 11700 ft 300 kts 270°
2026-04-27 15:43 38.76587 -75.89557 11387 ft 299 kts 270°
2026-04-27 15:43 38.76408 -75.92205 11180 ft 295 kts 269°
2026-04-27 15:43 38.76232 -75.94809 11060 ft 292 kts 270°
2026-04-27 15:43 38.76064 -75.97372 10906 ft 287 kts 270°
2026-04-27 15:44 38.75895 -75.99912 10741 ft 285 kts 270°
2026-04-27 15:44 38.75723 -76.02457 10600 ft 289 kts 270°
2026-04-27 15:44 38.75560 -76.05020 10438 ft 292 kts 273°
2026-04-27 15:44 38.75927 -76.07509 10260 ft 281 kts 298°
2026-04-27 15:45 38.76875 -76.09640 10104 ft 270 kts 306°
2026-04-27 15:45 38.77908 -76.11655 9877 ft 272 kts 307°
2026-04-27 15:45 38.78950 -76.13695 9551 ft 273 kts 307°
2026-04-27 15:45 38.79977 -76.15729 9249 ft 270 kts 306°
2026-04-27 15:46 38.80988 -76.17742 8945 ft 267 kts 306°
2026-04-27 15:46 38.81982 -76.19730 8654 ft 264 kts 306°
2026-04-27 15:46 38.82967 -76.21705 8375 ft 262 kts 306°
2026-04-27 15:46 38.83933 -76.23645 8101 ft 260 kts 306°
2026-04-27 15:47 38.84906 -76.25602 7803 ft 260 kts 306°
2026-04-27 15:47 38.85876 -76.27560 7523 ft 259 kts 306°
2026-04-27 15:47 38.86847 -76.29514 7238 ft 260 kts 306°
2026-04-27 15:47 38.87855 -76.31426 7045 ft 258 kts 308°
2026-04-27 15:48 38.88895 -76.33302 7007 ft 257 kts 308°
2026-04-27 15:48 38.89918 -76.35143 6918 ft 250 kts 308°
2026-04-27 15:48 38.90925 -76.36963 6577 ft 250 kts 308°
2026-04-27 15:49 38.92895 -76.40545 5921 ft 239 kts 308°
2026-04-27 15:49 38.93838 -76.42266 5583 ft 232 kts 309°
2026-04-27 15:49 38.94752 -76.43935 5224 ft 226 kts 309°
2026-04-27 15:49 38.95727 -76.45468 4851 ft 219 kts 316°
2026-04-27 15:50 38.96747 -76.46898 4479 ft 214 kts 317°
2026-04-27 15:50 38.97745 -76.48295 4158 ft 209 kts 316°
2026-04-27 15:50 38.98709 -76.49659 3838 ft 204 kts 317°
2026-04-27 15:50 38.99707 -76.50892 3540 ft 195 kts 329°
2026-04-27 15:51 39.00823 -76.51845 3210 ft 190 kts 327°
2026-04-27 15:51 39.01873 -76.52804 2893 ft 186 kts 326°
2026-04-27 15:51 39.02925 -76.53772 2589 ft 181 kts 326°
2026-04-27 15:51 39.03936 -76.54702 2346 ft 176 kts 326°
2026-04-27 15:52 39.04907 -76.55597 2107 ft 172 kts 326°
2026-04-27 15:52 39.05873 -76.56486 1861 ft 168 kts 326°
2026-04-27 15:52 39.06811 -76.57352 1635 ft 160 kts 326°
2026-04-27 15:52 39.07720 -76.58191 1560 ft 161 kts 325°
2026-04-27 15:53 39.08617 -76.59020 1518 ft 161 kts 324°
2026-04-27 15:53 39.09523 -76.59836 1497 ft 156 kts 326°
2026-04-27 15:53 39.10390 -76.60628 1499 ft 151 kts 325°
2026-04-27 15:53 39.11252 -76.61428 1464 ft 153 kts 325°
2026-04-27 15:54 39.12093 -76.62213 1248 ft 147 kts 326°
2026-04-27 15:54 39.12914 -76.62976 1073 ft 145 kts 324°
2026-04-27 15:54 39.13737 -76.63741 859 ft 145 kts 325°
2026-04-27 15:54 39.14553 -76.64501 668 ft 144 kts 324°
2026-04-27 15:55 39.15371 -76.65259 452 ft 145 kts 324°
2026-04-27 15:55 39.15915 -76.65768 300 ft 145 kts 324°
2026-04-27 15:55 39.16976 -76.66755 149 ft 135 kts 324°
2026-04-27 15:55 39.17579 -76.67312 145 ft 76 kts 324°
2026-04-27 15:56 39.17949 -76.67655 144 ft 59 kts 324°
2026-04-27 15:56 39.18098 -76.67776 144 ft 8 kts 355°
2026-04-27 15:56 39.18151 -76.67738 143 ft 11 kts 53°
2026-04-27 15:56 39.18133 -76.67650 146 ft 12 kts 144°
2026-04-27 15:57 39.18069 -76.67593 146 ft 11 kts 144°
2026-04-27 15:57 39.18006 -76.67535 146 ft 11 kts 143°
2026-04-27 15:57 39.17945 -76.67477 147 ft 11 kts 143°
2026-04-27 15:57 39.17888 -76.67419 148 ft 10 kts 127°
2026-04-27 15:58 39.17883 -76.67329 152 ft 10 kts 98°
2026-04-27 15:58 39.17835 -76.67269 153 ft 10 kts 146°
2026-04-27 15:58 39.17781 -76.67218 153 ft 10 kts 144°
2026-04-27 15:58 39.17727 -76.67169 154 ft 9 kts 145°
2026-04-27 15:59 39.17682 -76.67118 154 ft 9 kts 125°
2026-04-27 15:59 39.17676 -76.67053 154 ft 4 kts 83°
2026-04-27 15:59 39.17678 -76.67024 154 ft 2 kts 87°
2026-04-27 15:59 39.17678 -76.67014 154 ft 0 kts 87°